World > North America > United States > South Carolina > Berlin

Berlin, SC Hourly Weather Conditions

Feedback E-mail the Weather

Quick WX

Berlin, SC Weather Maps

°F °C°F °C
Berlin Weather Map
UTC Time: 2/9/2023, 07:01
Your Time:

Berlin, SC Regional Weather

Expires:202302090700;;047543
ASUS42 KCHS 090625
RWRCHS

Regional Weather Roundup
National Weather Service Charleston SC
100 AM EST THU FEB 09 2023

NOTE: "fair" indicates few or no clouds below 12,000 feet with no
significant weather and/or obstructions to visibility.

Not all stations are quality controlled. Use data with caution,
especially dewpoint observations.


SCZ027-030-031-034>040-042>050-090700-
...Southeast South Carolina...
  
CITY           SKY/WX    TMP DP  RH WIND       PRES   REMARKS
N Charleston   PTCLDY    54  51  90 CALM      30.25F                  
6HR MIN TEMP:  54; 6HR MAX TEMP:  65;                                

Waterfront Prk   N/A     57  55  93 CALM      30.12F                  
Mount Pleasant FAIR      52  50  93 CALM      30.25F                  
Johns Island   FAIR      54  54 100 CALM      30.25F                  
Pinopolis        N/A     57  55  94 VRB3        N/A                   
Moncks Corner  FAIR      50  50 100 CALM      30.26S                  
Summerville    FAIR      50  50 100 CALM      30.25S                  
Beaufort MCAS  CLEAR     53  51  93 CALM      30.24F                  
6HR MIN TEMP:  53; 6HR MAX TEMP:  62;                                

Beaufort Arpt  FAIR      55  54  94 SE3       30.24S                  
Hilton Head Is CLEAR     63  55  77 CALM      30.24F                  
Walterboro     CLEAR     46  46 100 CALM      30.26S                  
Allendale      FAIR      54  52  94 CALM      30.23S                  

...Southern Midlands and Pee Dee...
  
CITY           SKY/WX    TMP DP  RH WIND       PRES   REMARKS
Georgetown     FAIR      48  46  93 CALM      30.26F FOG              
Kingstree      FAIR      46  45  93 CALM      30.26F                  
Orangeburg     CLEAR     52  50  93 CALM      30.25F                  
6HR MIN TEMP:  52; 6HR MAX TEMP:  62;                                

Barnwell       FAIR      55  50  82 CALM      30.23F                  
Aiken          FAIR      57  48  73 SE9       30.22F                  
Manning        FAIR      48  46  93 CALM      30.26S                  
Columbia       CLEAR     53  50  89 CALM      30.23F                  
6HR MIN TEMP:  52; 6HR MAX TEMP:  67;                                

Sumter         CLEAR     51  47  89 CALM      30.23F                  
6HR MIN TEMP:  50; 6HR MAX TEMP:  62;                                

Florence       PTCLDY    54  51  90 CALM      30.26F                  
6HR MIN TEMP:  53; 6HR MAX TEMP:  61;                                

Myrtle Beach   PTCLDY    58  57  97 S6        30.28F                  
N Myrtle Beach PTCLDY    52  51  97 CALM      30.26F FOG              
6HR MIN TEMP:  54; 6HR MAX TEMP:  58;                                


$$
 

SKY/WX - Weather  TMP - Temperature  DP - Dew Point  RH - Humidity
WIND - Wind Direction/Speed PRES - Barometric Pressure VSB - Visibility
WCI - Wind Chill Index E13G22 Wind - East Wind 13 mph/Gusts of 22 mph

Trending Headlines

Trending Entertainment Headlines

Berlin Radar Loop

Use the map search tool if you want to place a location marker on the radar map...

Berlin Quick Facts

National Two Day Weather Forecast


E-mail the Berlin Weather Forecast

Voice your opinion or tell us about page issues...